Location: �clusier
(49.9361°N, 2.7869°E)
Time: 22:47:16
(UTC+00:00)

BREEZE-M DEB (TANK) - Pass Details

Date: 16 June 2021
Orbit: 334 x 16573 km, 49.3° (Epoch: 01 August)

Event Time Altitude Azimuth Distance (km) Brightness Sun altitude
Rises 22:48:45 0° 232° (SW) 7,311 7.8 -15.4°
Reaches altitude 10° 22:55:39 10° 228° (SW) 4,408 6.6 -15.7°
Maximum altitude 23:03:45 40° 162° (SSE) 1,085 3.3 -16.0°
Drops below altitude 10° 23:06:47 10° 89° (E) 1,641 4.6 -16.1°
Sets 23:08:14 0° 80° (E) 2,289 5.5 -16.1°
